Terminal Aerodrome Forecast
Issued by NWS Knoxville/Tri Cities, TN

Home | Current Version | Previous Version | Text Only | Print | Product List | Glossary On
Versions: 1 2 3 4 5 6 7 8 9 10 11 12 13 14 15 16 17 18 19 20 21 22 23 24 25 26 27 28 29 30 31 32 33
000
FTUS44 KMRX 230531
TAFTYS
TAF
KTYS 230531Z 2306/2406 24004KT P6SM FEW050 BKN110 BKN250
     FM230900 VRB02KT 5SM BR SCT120 BKN250
     FM231600 24007KT P6SM VCTS SCT035CB BKN250
     FM240100 VRB04KT P6SM VCTS SCT040CB BKN120 BKN200=

USA.gov is the U.S. government's official web portal to all federal, state and local government web resources and services.